Regional Weather Roundup
Issued by NWS

Home | Current Version | Previous Version | Text Only | Print | Product List | Glossary Off
Versions: 1 2 3 4 5 6 7 8 9 10 11 12 13 14 15 16 17 18 19 20 21 22 23 24 25 26 27 28 29 30 31 32 33 34 35 36 37 38 39 40 41 42 43 44 45 46 47 48 49 50

000
ASUS43 KLMK 281502
RWRKY
KENTUCKY REGIONAL WEATHER ROUNDUP
NATIONAL WEATHER SERVICE LOUISVILLE KY
1100 AM EDT FRI APR 28 2017

NOTE "FAIR" INDICATES FEW OR NO CLOUDS BELOW 12,000 FEET
WITH NO SIGNIFICANT WEATHER AND/OR OBSTRUCTIONS TO VISIBILITY.

KYZ001>023-026-027-061>063-070>075-281600-
WESTERN AND SOUTH CENTRAL KENTUCKY

CITY           SKY/WX    TMP DP  RH WIND       PRES   REMARKS
PADUCAH        CLOUDY    62  54  74 SE8       29.85F
HENDERSON      LGT RAIN  57  51  80 E5        29.92R
OWENSBORO      CLOUDY    60  52  74 SE10      29.92F
HOPKINSVILLE   MOSUNNY   65  55  71 SE9       29.89F
BOWLING GREEN  CLOUDY    65  59  81 E5        29.95F
GLASGOW        NOT AVBL
$$

KYZ024-025-028>034-038-045-046-053-281600-
NORTH CENTRAL KENTUCKY

CITY           SKY/WX    TMP DP  RH WIND       PRES   REMARKS
LOUISVILLE/SDF PTSUNNY   64  52  64 SE7       29.96F
LOUISVILLE/LOU CLOUDY    64  53  67 VRB5      29.97F
FORT KNOX      CLOUDY    60  52  76 E8        29.94S
$$

KYZ035>037-039>044-047>052-055>060-089>105-281600-
NORTHEAST KENTUCKY

CITY           SKY/WX    TMP DP  RH WIND       PRES   REMARKS
LEXINGTON      MOSUNNY   65  51  60 SE12      29.98F
COVINGTON      PTSUNNY   59  49  69 SE13      29.99F
FRANKFORT      MOSUNNY   65  51  60 SE8       29.97F
$$

KYZ054-064>069-076>088-106>120-281600-
SOUTHEAST KENTUCKY

CITY           SKY/WX    TMP DP  RH WIND       PRES   REMARKS
JACKSON        SUNNY     66  54  65 VRB5      30.03S
LONDON         MOSUNNY   68  55  63 SE8       30.00F
SOMERSET       MOSUNNY   66  54  63 SE3       30.01R
MIDDLESBORO    SUNNY     66  60  81 CALM      30.03F
MONTICELLO     PTSUNNY   68  57  68 VRB7      30.00F
$$




USA.gov is the U.S. government's official web portal to all federal, state and local government web resources and services.